Regional Weather Roundup
Issued by NWS

Home | Current Version | Previous Version | Graphics & Text | Print | Product List | Glossary Off
Versions: 1 2 3 4 5 6 7 8 9 10 11 12 13 14 15 16 17 18 19 20 21 22 23 24 25 26 27 28 29 30 31 32 33 34 35 36 37 38 39 40 41 42 43 44 45 46 47 48 49 50

000
ASUS43 KTOP 280108
RWRKS

WEATHER ROUNDUP FOR KANSAS
NATIONAL WEATHER SERVICE GOODLAND KS
800 PM CDT THU APR 27 2017

NOTE:  "FAIR" INDICATES FEW OR NO CLOUDS BELOW 12,000 FEET WITH NO
SIGNIFICANT WEATHER AND/OR OBSTRUCTIONS TO VISIBILITY.

KSZ001>006-013>018-027>032-041>047-280200-
NORTHWEST KANSAS

CITY           SKY/WX    TMP DP  RH WIND       PRES   REMARKS
GOODLAND       RAIN      45  42  89 NW12      29.52S
HAYS           RAIN      48  46  93 E25G32    29.57F FOG
HILL CITY      CLOUDY    50  43  77 E20G28    29.58F
RUSSELL        HVY RAIN  49  46  90 E16G24    29.61R FOG
$$

KSZ061>065-074>080-084>089-280200-
SOUTHWEST KANSAS

CITY           SKY/WX    TMP DP  RH WIND       PRES   REMARKS
DODGE CITY     CLOUDY    56  43  61 SE28G33   29.46F
ELKHART          N/A     62  34  35 SW7         N/A
GARDEN CITY    PTCLDY    56  42  59 E24G33    29.43R
GREAT BEND     CLOUDY    51  46  83 E15       29.57F
LIBERAL        CLOUDY    62  47  57 SE13      29.40R
PRATT          MOCLDY    53  41  63 SE17G24   29.53F
$$

KSZ066>073-081>083-090>101-280200-
SOUTHEAST KANSAS

CITY           SKY/WX    TMP DP  RH WIND       PRES   REMARKS
CHANUTE        MOCLDY    58  47  66 E9        29.65F
COFFEYVILLE    CLOUDY    58  50  75 SE5       29.69R
HUTCHINSON     CLOUDY    53  45  74 E15       29.61F
MEDICINE LODGE   N/A     58  42  55 SE17G32   29.53F
NEWTON         LGT RAIN  53  45  74 E13       29.65S
PARSONS        CLOUDY    59  47  64 VRB3      29.70R
WICHITA INTL   MOCLDY    56  44  64 SE17      29.61F
WICHITA JABRA  MOCLDY    55  45  68 E12       29.63F
WICHITA MCCONL CLOUDY    57  43  60 SE14      29.62F
WINFIELD       PTCLDY    58  44  60 SE12G21   29.63F
$$

KSZ007>012-019>026-033>040-048>060-102>105-280200-
NORTHEAST KANSAS

CITY           SKY/WX    TMP DP  RH WIND       PRES   REMARKS
CONCORDIA      CLOUDY    48  46  93 E10       29.68F
EMPORIA        CLOUDY    53  48  83 E10       29.66F
LAWRENCE       LGT RAIN  54  49  83 S6        29.77R
MANHATTAN      LGT RAIN  52  47  83 E8        29.70F
OLATHE IND     LGT RAIN  53  48  83 S5        29.78R
OLATHE EXE     LGT RAIN  53  49  86 S3        29.78R
SALINA         LGT RAIN  54  48  80 E9        29.65F
TOPEKA BILLARD LGT RAIN  54  49  83 E6        29.74F
TOPEKA FORBES  CLOUDY    54  49  83 E8        29.73F
$$



USA.gov is the U.S. government's official web portal to all federal, state and local government web resources and services.